FW1939 Weather Reports


time (UTC)temp
C
wind
direction
speed
KPH
gust
KPH
rain 1hr
cm
rain 24hr
cm
rain mn
cm
humidity
%
barometer
mb
20260506170048 16 160 0.0 3.2 0.00 0.00 0.00 74 1020.0
20260506165547 15 336 0.0 3.2 0.00 0.00 0.00 75 1020.0
20260506165046 15 325 0.0 3.2 0.00 0.00 0.00 76 1019.9
20260506164543 14 0 1.6 6.4 0.00 0.00 0.00 76 1020.0
20260506164253 14 25 1.6 6.4 0.00 0.00 0.00 78 1019.9
20260506163533 13 323 0.0 6.4 0.00 0.00 0.00 79 1019.9
20260506163027 13 327 1.6 6.4 0.00 0.00 0.00 80 1019.9
20260506162522 13 9 1.6 3.2 0.00 0.00 0.00 81 1019.9
20260506162241 13 23 0.0 3.2 0.00 0.00 0.00 82 1020.1
20260506161516 12 20 0.0 3.2 0.00 0.00 0.00 83 1020.0
20260506161458 12 325 0.0 3.2 0.00 0.00 0.00 84 1020.1
20260506160514 12 327 0.0 3.2 0.00 0.00 0.00 86 1020.1
20260506160012 11 325 0.0 3.2 0.00 0.00 0.00 86 1020.1
20260506155432 11 331 0.0 3.2 0.00 0.00 0.00 87 1020.1
20260506154927 11 26 0.0 3.2 0.00 0.00 0.00 88 1020.1
20260506154428 11 46 0.0 3.2 0.00 0.00 0.00 88 1020.2
20260506153922 10 33 0.0 3.2 0.00 0.00 0.00 89 1020.2
20260506153400 10 49 0.0 3.2 0.00 0.00 0.00 90 1020.1
20260506152901 10 27 0.0 0.0 0.00 0.00 0.00 91 1020.1
20260506152358 10 27 0.0 1.6 0.00 0.00 0.00 91 1020.0
20260506151842 9 27 0.0 3.2 0.00 0.00 0.00 91 1020.0
20260506151329 9 288 0.0 3.2 0.00 0.00 0.00 92 1020.1
20260506150819 9 236 0.0 3.2 0.00 0.00 0.00 92 1020.1
20260506150318 9 236 0.0 3.2 0.00 0.00 0.00 92 1020.1
20260506145810 9 244 0.0 3.2 0.00 0.00 0.00 92 1020.1
20260506145310 9 259 0.0 1.6 0.00 0.00 0.00 92 1020.1
20260506144808 8 9 0.0 0.0 0.00 0.00 0.00 93 1020.0
20260506144304 8 11 0.0 0.0 0.00 0.00 0.00 92 1020.0
20260506143805 8 26 0.0 0.0 0.00 0.00 0.00 92 1020.0
20260506143527 8 34 0.0 0.0 0.00 0.00 0.00 92 1019.9
20260506142804 8 36 0.0 3.2 0.00 0.00 0.00 92 1019.9
20260506142252 8 36 0.0 3.2 0.00 0.00 0.00 92 1019.7
20260506141944 8 36 0.0 3.2 0.00 0.00 0.00 91 1019.7
20260506141439 8 36 0.0 3.2 0.00 0.00 0.00 91 1019.6
20260506141142 8 36 0.0 3.2 0.00 0.00 0.00 91 1019.6
20260506140142 8 66 0.0 0.0 0.00 0.00 0.00 91 1019.6
20260506135639 8 70 0.0 0.0 0.00 0.00 0.00 91 1019.6
20260506135140 8 96 0.0 3.2 0.00 0.00 0.00 91 1019.6
20260506134624 8 98 0.0 3.2 0.00 0.00 0.00 91 1019.4
20260506134118 8 170 0.0 0.0 0.00 0.00 0.00 92 1019.3
20260506133844 8 171 0.0 0.0 0.00 0.00 0.00 91 1019.3
20260506133102 8 170 0.0 1.6 0.00 0.00 0.00 91 1019.2
20260506132521 7 170 0.0 1.6 0.00 0.00 0.00 91 1019.2
20260506132241 7 170 0.0 0.0 0.00 0.00 0.00 91 1019.0
20260506131514 7 170 0.0 0.0 0.00 0.00 0.00 91 1019.0
20260506131013 7 170 0.0 3.2 0.00 0.00 0.00 91 1019.1
20260506130510 7 170 0.0 3.2 0.00 0.00 0.00 91 1019.0
20260506125944 7 170 0.0 0.0 0.00 0.00 0.00 91 1018.9
20260506125442 7 184 0.0 0.0 0.00 0.00 0.00 91 1019.0
20260506124928 7 184 0.0 0.0 0.00 0.00 0.00 91 1018.9
20260506124422 7 184 0.0 0.0 0.00 0.00 0.00 91 1018.8
20260506123902 7 184 0.0 0.0 0.00 0.00 0.00 91 1018.9
20260506123344 7 184 0.0 0.0 0.00 0.00 0.00 91 1018.9
20260506122836 7 184 0.0 0.0 0.00 0.00 0.00 91 1018.8
20260506122556 7 184 0.0 0.0 0.00 0.00 0.00 91 1018.8
20260506121808 7 184 0.0 3.2 0.00 0.00 0.00 91 1018.6
20260506121245 7 177 0.0 3.2 0.00 0.00 0.00 91 1018.5
20260506120737 7 151 0.0 3.2 0.00 0.00 0.00 91 1018.5
20260506120218 7 156 0.0 3.2 0.00 0.00 0.00 91 1018.4
20260506115713 7 156 0.0 3.2 0.00 0.00 0.00 91 1018.3
20260506115200 7 156 0.0 3.2 0.00 0.00 0.00 91 1018.2
20260506114652 7 173 0.0 3.2 0.00 0.00 0.00 91 1018.2
20260506114409 7 169 0.0 3.2 0.00 0.00 0.00 91 1018.3
20260506113622 7 159 0.0 3.2 0.00 0.00 0.00 91 1018.3
20260506113116 7 190 0.0 3.2 0.00 0.00 0.00 91 1018.3
20260506113046 7 165 0.0 3.2 0.00 0.00 0.00 91 1018.3
20260506112054 7 159 0.0 0.0 0.00 0.00 0.00 91 1018.3
20260506111547 7 159 0.0 0.0 0.00 0.00 0.00 91 1018.3
20260506111028 7 159 0.0 0.0 0.00 0.00 0.00 91 1018.3
20260506110516 7 159 0.0 0.0 0.00 0.00 0.00 91 1018.3
20260506110233 7 159 0.0 0.0 0.00 0.00 0.00 91 1018.4
20260506105502 7 159 0.0 0.0 0.00 0.00 0.00 90 1018.4
20260506104958 7 159 0.0 0.0 0.00 0.00 0.00 91 1018.4
20260506104711 7 159 0.0 0.0 0.00 0.00 0.00 91 1018.4
20260506103932 7 159 0.0 0.0 0.00 0.00 0.00 90 1018.3
20260506103412 7 159 0.0 0.0 0.00 0.00 0.00 90 1018.4
20260506102856 7 159 0.0 0.0 0.00 0.00 0.00 90 1018.4
20260506102602 7 159 0.0 0.0 0.00 0.00 0.00 90 1018.4
20260506101837 8 159 0.0 0.0 0.00 0.00 0.00 90 1018.5
20260506101534 8 159 0.0 0.0 0.00 0.00 0.00 90 1018.5
20260506100816 8 159 0.0 0.0 0.00 0.00 0.00 90 1018.5
20260506100535 8 159 0.0 0.0 0.00 0.00 0.00 90 1018.3
20260506100255 8 159 0.0 0.0 0.00 0.00 0.00 89 1018.3
20260506095300 8 159 0.0 0.0 0.00 0.00 0.00 89 1018.4
20260506094945 8 159 0.0 1.6 0.00 0.00 0.00 89 1018.3
20260506094429 8 159 0.0 1.6 0.00 0.00 0.00 89 1018.3
20260506093702 8 159 0.0 3.2 0.00 0.00 0.00 89 1018.3
20260506093140 8 159 0.0 3.2 0.00 0.00 0.00 89 1018.3
20260506092628 8 172 0.0 3.2 0.00 0.00 0.00 89 1018.2
20260506092116 8 172 0.0 3.2 0.00 0.00 0.00 89 1018.2
20260506091613 8 159 0.0 3.2 0.00 0.00 0.00 89 1018.2
20260506091114 8 146 0.0 3.2 0.00 0.00 0.00 89 1018.2
20260506090819 8 174 0.0 3.2 0.00 0.00 0.00 89 1018.2
20260506090028 8 162 0.0 3.2 0.00 0.00 0.00 89 1018.3
20260506085517 8 173 0.0 3.2 0.00 0.00 0.00 89 1018.2
20260506085018 8 166 0.0 3.2 0.00 0.00 0.00 89 1018.1
20260506084509 8 151 0.0 3.2 0.00 0.00 0.00 89 1018.2
20260506084006 8 172 0.0 3.2 0.00 0.00 0.00 89 1018.2
20260506083503 8 163 0.0 3.2 0.00 0.00 0.00 89 1018.3
20260506083004 8 171 0.0 3.2 0.00 0.00 0.00 89 1018.2
20260506082443 8 173 0.0 3.2 0.00 0.00 0.00 89 1018.2
20260506081942 8 166 0.0 1.6 0.00 0.00 0.00 89 1018.2
20260506081442 8 171 0.0 0.0 0.00 0.00 0.00 89 1018.2
20260506080924 8 171 0.0 0.0 0.00 0.00 0.00 89 1018.2
20260506080405 8 171 0.0 1.6 0.00 0.00 0.00 89 1018.2
20260506080125 9 171 0.0 1.6 0.00 0.00 0.00 89 1018.2
20260506073316 8 109 0.0 0.0 0.00 0.00 0.00 88 1018.3
20260506072814 9 109 0.0 0.0 0.00 0.00 0.00 88 1018.2
20260506072300 9 109 0.0 0.0 0.00 0.00 0.00 88 1018.2
20260506071731 9 109 0.0 0.0 0.00 0.00 0.00 88 1018.1
20260506071226 9 109 0.0 0.0 0.00 0.00 0.00 88 1018.1
20260506070720 9 109 0.0 0.0 0.00 0.00 0.00 88 1018.0
20260506070212 9 109 0.0 0.0 0.00 0.00 0.00 88 1017.8
20260506062011 10 109 0.0 0.0 0.00 0.00 0.00 86 1017.5
20260506061455 10 109 0.0 0.0 0.00 0.00 0.00 86 1017.5
20260506060919 10 109 0.0 0.0 0.00 0.00 0.00 85 1017.3
20260506060411 10 109 0.0 0.0 0.00 0.00 0.00 85 1017.3
20260506051245 11 213 0.0 1.6 0.00 0.00 0.00 84 1017.1
20260506050743 11 218 0.0 0.0 0.00 0.00 0.00 84 1017.1
20260506050237 11 218 0.0 1.6 0.00 0.00 0.00 83 1017.0
20260506044705 11 215 0.0 1.6 0.00 0.00 0.00 84 1016.8
20260506044203 11 193 0.0 0.0 0.00 0.00 0.00 83 1016.7
20260506043648 11 193 0.0 0.0 0.00 0.00 0.00 83 1016.7
20260506043113 11 193 0.0 0.0 0.00 0.00 0.00 83 1016.7
20260506042813 11 193 0.0 0.0 0.00 0.00 0.00 82 1016.6
20260506042659 11 193 0.0 0.0 0.00 0.00 0.00 82 1016.6
20260506041605 11 193 0.0 0.0 0.00 0.00 0.00 82 1016.5
20260506041014 11 193 0.0 0.0 0.00 0.00 0.00 81 1016.4
20260506040924 11 193 0.0 0.0 0.00 0.00 0.00 81 1016.3
20260506035924 12 193 0.0 0.0 0.00 0.00 0.00 80 1016.4
20260506035639 12 193 0.0 0.0 0.00 0.00 0.00 80 1016.3
20260506034910 12 193 0.0 3.2 0.00 0.00 0.00 79 1016.2
20260506034401 12 193 0.0 3.2 0.00 0.00 0.00 79 1016.1
20260506033900 12 176 0.0 3.2 0.00 0.00 0.00 78 1016.2
20260506033353 12 175 0.0 3.2 0.00 0.00 0.00 78 1016.1
20260506032849 13 196 1.6 3.2 0.00 0.00 0.00 77 1016.0
20260506032352 13 188 0.0 3.2 0.00 0.00 0.00 76 1016.0
20260506031836 13 180 0.0 4.8 0.00 0.00 0.00 76 1015.7
20260506031324 13 178 0.0 6.4 0.00 0.00 0.00 75 1015.7
20260506030819 13 198 1.6 4.8 0.00 0.00 0.00 74 1015.6
20260506030536 13 200 1.6 4.8 0.00 0.00 0.00 74 1015.5
20260506025811 13 175 1.6 3.2 0.00 0.00 0.00 73 1015.5
20260506025306 13 187 1.6 8.0 0.00 0.00 0.00 72 1015.4
20260506024758 14 166 1.6 8.0 0.00 0.00 0.00 72 1015.5
20260506024257 14 171 3.2 9.7 0.00 0.00 0.00 71 1015.5
20260506023747 14 208 3.2 9.7 0.00 0.00 0.00 70 1015.4
20260506023235 14 192 3.2 9.7 0.00 0.00 0.00 70 1015.3
20260506022734 14 190 1.6 8.0 0.00 0.00 0.00 70 1015.4
20260506022223 14 159 1.6 6.4 0.00 0.00 0.00 71 1015.3
20260506021722 14 199 1.6 8.0 0.00 0.00 0.00 71 1015.2
20260506021217 15 215 3.2 11.3 0.00 0.00 0.00 71 1015.2
20260506020710 15 146 4.8 11.3 0.00 0.00 0.00 71 1015.2
20260506020423 15 180 4.8 11.3 0.00 0.00 0.00 71 1015.1
20260506015655 15 237 4.8 11.3 0.00 0.00 0.00 71 1015.2
20260506015148 15 165 3.2 9.7 0.00 0.00 0.00 70 1015.2
20260506014647 15 209 3.2 9.7 0.00 0.00 0.00 68 1015.3
20260506014141 15 221 3.2 11.3 0.00 0.00 0.00 68 1015.2
20260506013855 15 242 4.8 11.3 0.00 0.00 0.00 67 1015.2
20260506013125 15 205 3.2 11.3 0.00 0.00 0.00 67 1015.2
20260506012623 15 236 3.2 9.7 0.00 0.00 0.00 68 1015.2
20260506012117 15 231 3.2 9.7 0.00 0.00 0.00 67 1015.2
20260506011605 15 213 3.2 12.9 0.00 0.00 0.00 67 1015.2
20260506011104 16 244 4.8 12.9 0.00 0.00 0.00 66 1015.3
20260506010559 16 174 3.2 14.5 0.00 0.00 0.00 66 1015.3
20260506010053 16 215 3.2 14.5 0.00 0.00 0.00 65 1015.3
20260506005547 16 217 3.2 11.3 0.00 0.00 0.00 64 1015.3
20260506005040 16 225 4.8 14.5 0.00 0.00 0.00 63 1015.3
20260506004534 16 249 6.4 14.5 0.00 0.00 0.00 63 1015.3
20260506004024 16 229 3.2 14.5 0.00 0.00 0.00 63 1015.2
20260506003748 16 199 3.2 9.7 0.00 0.00 0.00 62 1015.3
20260506003016 16 132 3.2 9.7 0.00 0.00 0.00 62 1015.3
20260506002510 16 246 3.2 12.9 0.00 0.00 0.00 62 1015.3
20260506002004 16 171 4.8 12.9 0.00 0.00 0.00 62 1015.2
20260506001500 17 160 6.4 14.5 0.00 0.00 0.00 63 1015.2
20260506000954 17 179 4.8 14.5 0.00 0.00 0.00 62 1015.2
20260506000447 17 190 4.8 11.3 0.00 0.00 0.00 62 1015.3
20260505235936 17 227 6.4 14.5 0.00 0.00 0.00 62 1015.1
20260505235435 17 169 4.8 14.5 0.00 0.00 0.00 62 1015.2
20260505234924 17 165 4.8 11.3 0.00 0.00 0.00 61 1015.2
20260505234422 17 165 4.8 11.3 0.00 0.00 0.00 60 1015.2
20260505234141 18 202 4.8 9.7 0.00 0.00 0.00 59 1015.2
20260505233638 18 159 3.2 11.3 0.00 0.00 0.00 59 1015.2
20260505232904 18 205 3.2 11.3 0.00 0.00 0.00 57 1015.3
20260505232354 18 211 3.2 11.3 0.00 0.00 0.00 57 1015.3
20260505231852 18 205 3.2 11.3 0.00 0.00 0.00 57 1015.3
20260505231347 18 249 4.8 12.9 0.00 0.00 0.00 57 1015.3
20260505231103 19 153 4.8 12.9 0.00 0.00 0.00 57 1015.4
20260505230335 18 145 4.8 11.3 0.00 0.00 0.00 58 1015.3
20260505230045 18 259 4.8 11.3 0.00 0.00 0.00 58 1015.2
20260505225322 18 209 4.8 11.3 0.00 0.00 0.00 58 1015.3
20260505224813 18 213 3.2 11.3 0.00 0.00 0.00 58 1015.4
20260505224312 18 205 3.2 9.7 0.00 0.00 0.00 57 1015.6
20260505223806 18 224 3.2 9.7 0.00 0.00 0.00 59 1015.5
20260505223259 18 207 4.8 11.3 0.00 0.00 0.00 57 1015.6
20260505222754 18 133 4.8 14.5 0.00 0.00 0.00 58 1015.5
20260505222505 18 194 4.8 14.5 0.00 0.00 0.00 59 1015.7
20260505221938 18 184 1.6 11.3 0.00 0.00 0.00 60 1015.6
20260505221826 18 171 1.6 11.3 0.00 0.00 0.00 57 1015.7
20260505220724 18 135 1.6 12.9 0.00 0.00 0.00 60 1015.7
20260505220222 18 185 1.6 12.9 0.00 0.00 0.00 58 1015.8
20260505215716 18 327 1.6 6.4 0.00 0.00 0.00 59 1015.8
20260505215210 18 169 3.2 14.5 0.00 0.00 0.00 59 1016.0
20260505214704 17 161 4.8 14.5 0.00 0.00 0.00 60 1016.0
20260505214158 18 210 4.8 12.9 0.00 0.00 0.00 58 1016.0
20260505213648 17 145 4.8 14.5 0.00 0.00 0.00 60 1016.0
20260505213146 18 213 3.2 14.5 0.00 0.00 0.00 60 1016.1
20260505212640 17 250 3.2 11.3 0.00 0.00 0.00 60 1016.0
20260505212134 17 49 3.2 11.3 0.00 0.00 0.00 60 1016.2
20260505211841 17 175 3.2 11.3 0.00 0.00 0.00 61 1016.2
20260505211122 17 165 3.2 11.3 0.00 0.00 0.00 61 1016.0
20260505210617 17 191 1.6 9.7 0.00 0.00 0.00 60 1016.1
20260505210110 17 197 1.6 8.0 0.00 0.00 0.00 60 1016.2
20260505205610 17 23 1.6 6.4 0.00 0.00 0.00 59 1016.2
20260505205110 18 274 1.6 11.3 0.00 0.00 0.00 60 1016.2
20260505204552 17 198 1.6 11.3 0.00 0.00 0.00 62 1016.2
20260505204310 17 163 1.6 9.7 0.00 0.00 0.00 62 1016.1
20260505203540 17 202 1.6 9.7 0.00 0.00 0.00 61 1016.1
20260505203034 17 220 1.6 11.3 0.00 0.00 0.00 60 1016.1
20260505202530 17 174 3.2 11.3 0.00 0.00 0.00 60 1016.1
20260505202018 18 202 1.6 11.3 0.00 0.00 0.00 58 1016.1
20260505201516 18 171 1.6 9.7 0.00 0.00 0.00 59 1016.2
20260505201010 17 224 1.6 9.7 0.00 0.00 0.00 62 1016.2
20260505200505 16 109 3.2 11.3 0.00 0.00 0.00 63 1016.1
20260505195958 16 81 4.8 11.3 0.00 0.00 0.00 63 1016.1
20260505195452 16 150 3.2 11.3 0.00 0.00 0.00 62 1016.0
20260505194946 17 240 1.6 8.0 0.00 0.00 0.00 62 1016.0
20260505194436 17 246 1.6 11.3 0.00 0.00 0.00 61 1016.2
20260505193930 16 118 1.6 11.3 0.00 0.00 0.00 64 1016.2
20260505193424 16 202 3.2 9.7 0.00 0.00 0.00 63 1016.2
20260505193405 16 220 3.2 9.7 0.00 0.00 0.00 64 1016.1
20260505192639 16 169 1.6 8.0 0.00 0.00 0.00 64 1016.1
20260505192132 16 294 1.6 8.0 0.00 0.00 0.00 65 1016.2
20260505191400 16 236 3.2 8.0 0.00 0.00 0.00 65 1016.2
20260505190854 16 240 3.2 8.0 0.00 0.00 0.00 65 1016.2
20260505190348 16 196 1.6 8.0 0.00 0.00 0.00 64 1016.1
20260505185843 16 191 1.6 6.4 0.00 0.00 0.00 63 1016.2
20260505185336 16 21 1.6 6.4 0.00 0.00 0.00 61 1016.1
20260505184826 16 333 0.0 3.2 0.00 0.00 0.00 60 1016.0
20260505184321 16 180 1.6 6.4 0.00 0.00 0.00 62 1016.1
20260505183819 16 233 1.6 6.4 0.00 0.00 0.00 61 1016.1
20260505183312 16 232 0.0 4.8 0.00 0.00 0.00 60 1016.0
20260505182807 16 268 0.0 3.2 0.00 0.00 0.00 61 1016.0
20260505182300 16 38 0.0 3.2 0.00 0.00 0.00 64 1016.0
20260505181754 16 38 1.6 8.0 0.00 0.00 0.00 61 1016.1
20260505181248 16 161 1.6 8.0 0.00 0.00 0.00 62 1016.1
20260505180749 16 11 0.0 3.2 0.00 0.00 0.00 63 1016.0
20260505180236 15 196 0.0 3.2 0.00 0.00 0.00 64 1015.9
20260505175730 15 49 0.0 3.2 0.00 0.00 0.00 66 1015.9
20260505175224 15 18 0.0 3.2 0.00 0.00 0.00 66 1015.9
20260505174719 15 338 0.0 4.8 0.00 0.00 0.00 66 1015.9
20260505174220 14 22 0.0 4.8 0.00 0.00 0.00 67 1015.8
20260505173717 14 330 1.6 6.4 0.00 0.00 0.00 66 1015.8
20260505173218 15 19 0.0 6.4 0.00 0.00 0.00 67 1015.8
20260505172716 14 61 0.0 6.4 0.00 0.00 0.00 68 1015.8
20260505172440 14 92 1.6 6.4 0.00 0.00 0.00 70 1015.8
20260505171718 14 164 0.0 3.2 0.00 0.00 0.00 68 1015.8
20260505171214 13 22 0.0 3.2 0.00 0.00 0.00 70 1016.0
20260505170937 13 32 0.0 3.2 0.00 0.00 0.00 71 1015.9